Time,TemperatureF,DewpointF,PressureIn,WindDirection,WindDirectionDegrees,WindSpeedMPH,WindSpeedGustMPH,Humidity,HourlyPrecipIn,Conditions,Clouds,dailyrainin,SoftwareType,DateUTC
2013-04-04 00:02:00,48.0,45.0,30.09,NNW,342,0.0,0.0,90,0.00,,,0.63,,2013-04-04 05:02:00,
2013-04-04 00:12:00,48.0,45.0,30.09,NNW,342,0.0,0.0,90,0.00,,,0.63,,2013-04-04 05:12:00,
2013-04-04 00:23:00,48.0,45.0,30.09,NNW,341,0.0,0.0,90,0.00,,,0.63,,2013-04-04 05:23:00,
2013-04-04 00:32:00,48.0,45.0,30.09,NNW,339,0.0,0.0,90,0.00,,,0.33,,2013-04-04 05:32:00,
2013-04-04 00:42:00,48.0,45.0,30.09,NNW,339,0.0,0.0,90,0.00,,,0.33,,2013-04-04 05:42:00,
2013-04-04 00:52:00,48.0,45.0,30.09,NNW,331,5.0,15.0,89,0.00,,,0.33,,2013-04-04 05:52:00,
2013-04-04 01:02:00,48.0,45.0,30.09,NNW,336,6.0,17.0,89,0.00,,,0.33,,2013-04-04 06:02:00,
2013-04-04 01:12:00,48.0,45.0,30.09,NNW,336,6.0,17.0,89,0.00,,,0.33,,2013-04-04 06:12:00,
2013-04-04 01:22:00,48.0,45.0,30.09,NNW,336,5.0,13.0,89,0.00,,,0.33,,2013-04-04 06:22:00,
2013-04-04 01:32:00,48.0,45.0,30.09,NNW,334,3.0,9.0,89,0.00,,,0.18,,2013-04-04 06:32:00,
2013-04-04 01:42:00,48.0,45.0,30.09,NNW,334,3.0,9.0,89,0.00,,,0.18,,2013-04-04 06:42:00,
2013-04-04 01:52:00,48.0,45.0,30.09,NNW,334,0.0,0.0,89,0.00,,,0.18,,2013-04-04 06:52:00,
2013-04-04 02:02:00,48.0,45.0,30.08,NNW,335,0.0,0.0,89,0.00,,,0.18,,2013-04-04 07:02:00,
2013-04-04 02:12:00,48.0,45.0,30.08,NNW,335,0.0,0.0,89,0.00,,,0.18,,2013-04-04 07:12:00,
2013-04-04 02:22:00,48.0,45.0,30.08,NNW,337,5.0,14.0,89,0.00,,,0.18,,2013-04-04 07:22:00,
2013-04-04 02:32:00,48.0,45.0,30.08,NNW,337,0.0,0.0,88,0.00,,,0.09,,2013-04-04 07:32:00,
2013-04-04 02:43:00,48.0,45.0,30.08,NNW,337,0.0,0.0,88,0.00,,,0.09,,2013-04-04 07:43:00,
2013-04-04 02:52:00,47.0,44.0,30.08,NNW,334,3.0,14.0,88,0.00,,,0.09,,2013-04-04 07:52:00,
2013-04-04 03:02:00,47.0,44.0,30.08,NNW,337,2.0,15.0,88,0.00,,,0.09,,2013-04-04 08:02:00,
2013-04-04 03:12:00,47.0,44.0,30.08,NNW,337,2.0,15.0,88,0.00,,,0.09,,2013-04-04 08:12:00,
2013-04-04 03:22:00,47.0,43.0,30.07,NNW,345,6.0,17.0,87,0.00,,,0.09,,2013-04-04 08:22:00,
2013-04-04 03:32:00,47.0,43.0,30.07,NNW,337,5.0,15.0,87,0.00,,,0.09,,2013-04-04 08:32:00,
2013-04-04 03:43:00,47.0,43.0,30.07,NNW,337,5.0,15.0,87,0.00,,,0.09,,2013-04-04 08:43:00,
2013-04-04 03:52:00,47.0,43.0,30.07,NNW,337,1.0,13.0,87,0.00,,,0.09,,2013-04-04 08:52:00,
2013-04-04 04:02:00,47.0,43.0,30.06,NNW,337,0.0,11.0,87,0.00,,,0.09,,2013-04-04 09:02:00,
2013-04-04 04:12:00,47.0,43.0,30.06,NNW,337,0.0,11.0,87,0.00,,,0.09,,2013-04-04 09:12:00,
2013-04-04 04:22:00,47.0,43.0,30.06,NNW,336,3.0,11.0,87,0.00,,,0.09,,2013-04-04 09:22:00,
2013-04-04 04:33:00,47.0,44.0,30.07,NNW,340,1.0,9.0,88,0.00,,,0.09,,2013-04-04 09:33:00,
2013-04-04 04:43:00,47.0,44.0,30.07,NNW,340,1.0,9.0,88,0.00,,,0.09,,2013-04-04 09:43:00,
2013-04-04 04:53:00,47.0,44.0,30.07,NNW,340,0.0,8.0,88,0.00,,,0.09,,2013-04-04 09:53:00,
2013-04-04 05:04:00,47.0,44.0,30.07,NNW,340,0.0,1.0,88,0.00,,,0.09,,2013-04-04 10:04:00,
2013-04-04 05:12:00,47.0,44.0,30.07,NNW,340,0.0,1.0,88,0.00,,,0.09,,2013-04-04 10:12:00,
2013-04-04 05:23:00,47.0,43.0,30.07,NNW,338,7.0,13.0,87,0.00,,,0.09,,2013-04-04 10:23:00,
2013-04-04 05:33:00,47.0,43.0,30.06,NNW,337,3.0,12.0,87,0.00,,,0.09,,2013-04-04 10:33:00,
2013-04-04 05:42:00,47.0,43.0,30.06,NNW,337,3.0,12.0,87,0.00,,,0.09,,2013-04-04 10:42:00,
2013-04-04 05:53:00,47.0,43.0,30.06,NNW,336,1.0,9.0,87,0.00,,,0.09,,2013-04-04 10:53:00,
2013-04-04 06:02:00,47.0,43.0,30.07,NNW,336,0.0,0.0,87,0.00,,,0.09,,2013-04-04 11:02:00,
2013-04-04 06:12:00,47.0,43.0,30.07,NNW,336,0.0,0.0,87,0.00,,,0.09,,2013-04-04 11:12:00,
2013-04-04 06:22:00,46.0,42.0,30.07,NNW,334,4.0,10.0,87,0.00,,,0.09,,2013-04-04 11:22:00,
2013-04-04 06:33:00,46.0,42.0,30.08,NNW,341,8.0,14.0,86,0.00,,,0.09,,2013-04-04 11:33:00,
2013-04-04 06:42:00,46.0,42.0,30.08,NNW,341,8.0,14.0,86,0.00,,,0.09,,2013-04-04 11:42:00,
2013-04-04 06:53:00,46.0,42.0,30.09,NNW,340,7.0,16.0,86,0.00,,,0.09,,2013-04-04 11:53:00,
2013-04-04 07:02:00,46.0,42.0,30.09,NNW,340,5.0,13.0,86,0.00,,,0.09,,2013-04-04 12:02:00,
2013-04-04 07:12:00,46.0,42.0,30.09,NNW,340,5.0,13.0,86,0.00,,,0.09,,2013-04-04 12:12:00,
2013-04-04 07:22:00,46.0,42.0,30.09,NNW,340,5.0,13.0,86,0.00,,,0.09,,2013-04-04 12:22:00,
2013-04-04 07:32:00,46.0,42.0,30.09,NNW,331,6.0,14.0,85,0.00,,,0.09,,2013-04-04 12:32:00,
2013-04-04 07:43:00,46.0,42.0,30.09,NNW,331,6.0,14.0,85,0.00,,,0.09,,2013-04-04 12:43:00,
2013-04-04 07:52:00,46.0,41.0,30.10,NNW,337,6.0,13.0,84,0.00,,,0.09,,2013-04-04 12:52:00,
2013-04-04 08:02:00,46.0,41.0,30.11,NNW,339,6.0,14.0,82,0.00,,,0.09,,2013-04-04 13:02:00,
2013-04-04 08:12:00,46.0,41.0,30.11,NNW,339,6.0,14.0,82,0.00,,,0.09,,2013-04-04 13:12:00,
2013-04-04 08:22:00,46.0,41.0,30.12,NNW,336,0.0,10.0,82,0.00,,,0.09,,2013-04-04 13:22:00,
2013-04-04 08:32:00,46.0,40.0,30.13,North,349,8.0,19.0,80,0.00,,,0.09,,2013-04-04 13:32:00,
2013-04-04 08:42:00,46.0,40.0,30.13,North,349,8.0,19.0,80,0.00,,,0.09,,2013-04-04 13:42:00,
2013-04-04 08:52:00,46.0,40.0,30.14,NNW,345,5.0,14.0,78,0.00,,,0.09,,2013-04-04 13:52:00,
2013-04-04 09:03:00,46.0,39.0,30.14,NNW,335,8.0,19.0,77,0.00,,,0.09,,2013-04-04 14:03:00,
2013-04-04 09:12:00,46.0,39.0,30.14,NNW,335,8.0,19.0,77,0.00,,,0.09,,2013-04-04 14:12:00,
2013-04-04 09:22:00,46.0,39.0,30.15,NNW,340,7.0,17.0,76,0.00,,,0.09,,2013-04-04 14:22:00,
2013-04-04 09:32:00,46.0,39.0,30.15,NNW,343,6.0,16.0,75,0.00,,,0.09,,2013-04-04 14:32:00,
2013-04-04 09:42:00,46.0,39.0,30.15,NNW,343,6.0,16.0,75,0.00,,,0.09,,2013-04-04 14:42:00,
2013-04-04 09:52:00,46.0,39.0,30.16,NNW,334,7.0,16.0,75,0.00,,,0.09,,2013-04-04 14:52:00,
2013-04-04 10:02:00,46.0,39.0,30.16,NNW,336,11.0,20.0,76,0.00,,,0.09,,2013-04-04 15:02:00,
2013-04-04 10:12:00,46.0,39.0,30.16,NNW,336,11.0,20.0,76,0.00,,,0.09,,2013-04-04 15:12:00,
2013-04-04 10:23:00,46.0,39.0,30.16,North,350,8.0,17.0,75,0.00,,,0.09,,2013-04-04 15:23:00,
2013-04-04 10:33:00,47.0,39.0,30.16,NNW,335,7.0,20.0,74,0.00,,,0.09,,2013-04-04 15:33:00,
2013-04-04 10:43:00,47.0,39.0,30.16,NNW,335,7.0,20.0,74,0.00,,,0.09,,2013-04-04 15:43:00,
2013-04-04 10:53:00,47.0,39.0,30.17,NNW,344,9.0,19.0,75,0.00,,,0.09,,2013-04-04 15:53:00,
2013-04-04 11:03:00,46.0,39.0,30.17,NW,323,9.0,19.0,75,0.00,,,0.09,,2013-04-04 16:03:00,
2013-04-04 11:12:00,46.0,39.0,30.17,NW,323,9.0,19.0,75,0.00,,,0.09,,2013-04-04 16:12:00,
2013-04-04 11:23:00,46.0,39.0,30.17,NW,323,9.0,19.0,75,0.00,,,0.09,,2013-04-04 16:23:00,
2013-04-04 11:32:00,47.0,40.0,30.17,NW,317,7.0,17.0,76,0.00,,,0.07,,2013-04-04 16:32:00,
2013-04-04 11:42:00,47.0,40.0,30.17,NW,317,7.0,17.0,76,0.00,,,0.07,,2013-04-04 16:42:00,
2013-04-04 11:54:00,47.0,39.0,30.18,North,350,9.0,20.0,75,0.00,,,0.07,,2013-04-04 16:54:00,
2013-04-04 12:03:00,47.0,40.0,30.18,NNW,330,5.0,21.0,76,0.00,,,0.07,,2013-04-04 17:03:00,
2013-04-04 12:13:00,47.0,40.0,30.18,NNW,330,5.0,21.0,76,0.00,,,0.07,,2013-04-04 17:13:00,
2013-04-04 12:22:00,49.0,40.0,30.18,NNW,344,11.0,18.0,70,0.00,,,0.07,,2013-04-04 17:22:00,
2013-04-04 12:33:00,49.0,40.0,30.18,NNW,338,7.0,20.0,72,0.00,,,0.05,,2013-04-04 17:33:00,
2013-04-04 12:42:00,49.0,40.0,30.18,NNW,338,7.0,20.0,72,0.00,,,0.05,,2013-04-04 17:42:00,
2013-04-04 12:52:00,49.0,39.0,30.18,NW,309,12.0,22.0,68,0.00,,,0.05,,2013-04-04 17:52:00,
2013-04-04 13:02:00,50.0,40.0,30.18,NNW,337,10.0,20.0,68,0.00,,,0.05,,2013-04-04 18:02:00,
2013-04-04 13:12:00,50.0,40.0,30.18,NNW,337,10.0,20.0,68,0.00,,,0.05,,2013-04-04 18:12:00,
2013-04-04 13:22:00,50.0,40.0,30.17,NNW,345,9.0,21.0,69,0.00,,,0.05,,2013-04-04 18:22:00,
2013-04-04 13:32:00,50.0,40.0,30.16,West,273,9.0,18.0,68,0.00,,,0.05,,2013-04-04 18:32:00,
2013-04-04 13:42:00,50.0,40.0,30.16,West,273,9.0,18.0,68,0.00,,,0.05,,2013-04-04 18:42:00,
2013-04-04 13:52:00,52.0,41.0,30.16,North,355,11.0,19.0,65,0.00,,,0.05,,2013-04-04 18:52:00,
2013-04-04 14:02:00,52.0,41.0,30.15,NNW,332,10.0,21.0,65,0.00,,,0.05,,2013-04-04 19:02:00,
2013-04-04 14:12:00,52.0,41.0,30.15,NNW,332,10.0,21.0,65,0.00,,,0.05,,2013-04-04 19:12:00,
2013-04-04 14:22:00,53.0,40.0,30.14,NNW,333,13.0,23.0,62,0.00,,,0.05,,2013-04-04 19:22:00,
2013-04-04 14:32:00,54.0,42.0,30.13,NNW,328,7.0,19.0,63,0.00,,,0.03,,2013-04-04 19:32:00,
2013-04-04 14:42:00,54.0,42.0,30.13,NNW,328,7.0,19.0,63,0.00,,,0.03,,2013-04-04 19:42:00,
2013-04-04 14:52:00,54.0,42.0,30.12,WNW,298,6.0,16.0,63,0.00,,,0.03,,2013-04-04 19:52:00,
2013-04-04 15:03:00,55.0,42.0,30.12,North,355,8.0,20.0,62,0.00,,,0.03,,2013-04-04 20:03:00,
2013-04-04 15:12:00,55.0,42.0,30.12,North,355,8.0,20.0,62,0.00,,,0.03,,2013-04-04 20:12:00,
2013-04-04 15:22:00,55.0,42.0,30.10,NNW,329,8.0,18.0,61,0.00,,,0.03,,2013-04-04 20:22:00,
2013-04-04 15:32:00,55.0,42.0,30.10,NNW,347,10.0,18.0,61,0.00,,,0.02,,2013-04-04 20:32:00,
2013-04-04 15:42:00,55.0,42.0,30.10,NNW,347,10.0,18.0,61,0.00,,,0.02,,2013-04-04 20:42:00,
2013-04-04 15:53:00,57.0,43.0,30.10,NW,320,9.0,17.0,60,0.00,,,0.02,,2013-04-04 20:53:00,
2013-04-04 16:02:00,59.0,44.0,30.09,NNW,331,2.0,12.0,58,0.00,,,0.02,,2013-04-04 21:02:00,
2013-04-04 16:12:00,59.0,44.0,30.09,NNW,331,2.0,12.0,58,0.00,,,0.02,,2013-04-04 21:12:00,
2013-04-04 16:22:00,57.0,42.0,30.09,NNW,346,9.0,21.0,57,0.00,,,0.02,,2013-04-04 21:22:00,
2013-04-04 16:32:00,57.0,43.0,30.09,WNW,288,6.0,14.0,59,0.00,,,0.01,,2013-04-04 21:32:00,
2013-04-04 16:43:00,57.0,43.0,30.09,WNW,288,6.0,14.0,59,0.00,,,0.01,,2013-04-04 21:43:00,
2013-04-04 16:52:00,58.0,43.0,30.08,NW,325,5.0,16.0,57,0.00,,,0.01,,2013-04-04 21:52:00,
2013-04-04 17:03:00,59.0,44.0,30.07,North,350,4.0,12.0,57,0.00,,,0.01,,2013-04-04 22:03:00,
2013-04-04 17:12:00,59.0,44.0,30.07,North,350,4.0,12.0,57,0.00,,,0.01,,2013-04-04 22:12:00,
2013-04-04 17:23:00,59.0,43.0,30.07,NE,45,6.0,12.0,56,0.00,,,0.01,,2013-04-04 22:23:00,
2013-04-04 17:33:00,59.0,44.0,30.07,North,10,3.0,11.0,57,0.00,,,0.00,,2013-04-04 22:33:00,
2013-04-04 17:42:00,59.0,44.0,30.07,North,10,3.0,11.0,57,0.00,,,0.00,,2013-04-04 22:42:00,
2013-04-04 17:53:00,59.0,43.0,30.06,North,350,7.0,17.0,56,0.00,,,0.00,,2013-04-04 22:53:00,
2013-04-04 18:03:00,60.0,44.0,30.06,NNW,329,10.0,19.0,56,0.00,,,0.00,,2013-04-04 23:03:00,
2013-04-04 18:12:00,60.0,44.0,30.06,NNW,329,10.0,19.0,56,0.00,,,0.00,,2013-04-04 23:12:00,
2013-04-04 18:22:00,60.0,45.0,30.06,North,11,1.0,15.0,57,0.00,,,0.00,,2013-04-04 23:22:00,
2013-04-04 18:32:00,60.0,44.0,30.05,North,11,0.0,10.0,56,0.00,,,0.00,,2013-04-04 23:32:00,
2013-04-04 18:42:00,60.0,44.0,30.05,North,11,0.0,10.0,56,0.00,,,0.00,,2013-04-04 23:42:00,
2013-04-04 18:52:00,61.0,46.0,30.06,NNE,15,0.0,4.0,57,0.00,,,0.00,,2013-04-04 23:52:00,
2013-04-04 19:02:00,60.0,44.0,30.06,NNE,28,1.0,8.0,56,0.00,,,0.00,,2013-04-05 00:02:00,
2013-04-04 19:12:00,60.0,44.0,30.06,NNE,28,1.0,8.0,56,0.00,,,0.00,,2013-04-05 00:12:00,
2013-04-04 19:22:00,60.0,44.0,30.06,NNE,28,1.0,8.0,56,0.00,,,0.00,,2013-04-05 00:22:00,
2013-04-04 19:32:00,58.0,45.0,30.06,ENE,57,5.0,9.0,61,0.00,,,0.00,,2013-04-05 00:32:00,
2013-04-04 19:42:00,58.0,45.0,30.06,ENE,57,5.0,9.0,61,0.00,,,0.00,,2013-04-05 00:42:00,
2013-04-04 19:52:00,57.0,45.0,30.07,ENE,57,1.0,8.0,63,0.00,,,0.00,,2013-04-05 00:52:00,
2013-04-04 20:02:00,56.0,44.0,30.07,NE,56,5.0,9.0,64,0.00,,,0.00,,2013-04-05 01:02:00,
2013-04-04 20:12:00,56.0,44.0,30.07,NE,56,5.0,9.0,64,0.00,,,0.00,,2013-04-05 01:12:00,
2013-04-04 20:22:00,55.0,44.0,30.07,NE,56,0.0,5.0,66,0.00,,,0.00,,2013-04-05 01:22:00,
2013-04-04 20:32:00,54.0,44.0,30.08,NE,56,0.0,0.0,69,0.00,,,0.00,,2013-04-05 01:32:00,
2013-04-04 20:42:00,54.0,44.0,30.08,NE,56,0.0,0.0,69,0.00,,,0.00,,2013-04-05 01:42:00,
2013-04-04 20:52:00,53.0,44.0,30.08,NE,56,0.0,0.0,71,0.00,,,0.00,,2013-04-05 01:52:00,
2013-04-04 21:03:00,52.0,43.0,30.09,NE,56,0.0,4.0,72,0.00,,,0.00,,2013-04-05 02:03:00,
2013-04-04 21:12:00,52.0,43.0,30.09,NE,56,0.0,4.0,72,0.00,,,0.00,,2013-04-05 02:12:00,
2013-04-04 21:22:00,52.0,43.0,30.09,NE,56,0.0,4.0,72,0.00,,,0.00,,2013-04-05 02:22:00,
2013-04-04 21:32:00,51.0,43.0,30.10,NE,56,0.0,0.0,73,0.00,,,0.00,,2013-04-05 02:32:00,
2013-04-04 21:42:00,51.0,43.0,30.10,NE,56,0.0,0.0,73,0.00,,,0.00,,2013-04-05 02:42:00,
2013-04-04 21:52:00,51.0,43.0,30.10,NE,56,0.0,0.0,75,0.00,,,0.00,,2013-04-05 02:52:00,
2013-04-04 22:02:00,50.0,42.0,30.11,NE,56,0.0,0.0,75,0.00,,,0.00,,2013-04-05 03:02:00,
2013-04-04 22:12:00,50.0,42.0,30.11,NE,56,0.0,0.0,75,0.00,,,0.00,,2013-04-05 03:12:00,
2013-04-04 22:22:00,49.0,42.0,30.11,NE,56,0.0,0.0,78,0.00,,,0.00,,2013-04-05 03:22:00,
2013-04-04 22:32:00,49.0,42.0,30.13,NE,56,0.0,0.0,78,0.00,,,0.00,,2013-04-05 03:32:00,
2013-04-04 22:43:00,49.0,42.0,30.13,NE,56,0.0,0.0,78,0.00,,,0.00,,2013-04-05 03:43:00,
2013-04-04 22:53:00,49.0,42.0,30.13,NE,56,0.0,0.0,78,0.00,,,0.00,,2013-04-05 03:53:00,
2013-04-04 23:02:00,48.0,42.0,30.13,NE,56,0.0,0.0,79,0.00,,,0.00,,2013-04-05 04:02:00,
2013-04-04 23:12:00,48.0,42.0,30.13,NE,56,0.0,0.0,79,0.00,,,0.00,,2013-04-05 04:12:00,
2013-04-04 23:22:00,48.0,42.0,30.14,NE,56,0.0,0.0,80,0.00,,,0.00,,2013-04-05 04:22:00,
2013-04-04 23:32:00,47.0,42.0,30.15,NE,56,0.0,0.0,82,0.00,,,0.00,,2013-04-05 04:32:00,
2013-04-04 23:42:00,47.0,42.0,30.15,NE,56,0.0,0.0,82,0.00,,,0.00,,2013-04-05 04:42:00,
2013-04-04 23:52:00,46.0,41.0,30.15,NE,56,0.0,0.0,83,0.00,,,0.00,,2013-04-05 04:52:00,